HAIYANG-2C (46469 NORAD) Tracking and Keplerian Element Data

This shows tracking and keplerian element data for the satellite.

Feedback or suggestion? Click here.




ElementValue
Catalog46469
NameHAIYANG-2C
Epoch Orbit548
Epoch Day304.82544505
Epoch Year2020
RAAN292.6825
Inclination65.9968
Eccentricity0.0009819
Argument of Perigee235.0815
Mean Anonmoly124.9386
Mean Motion13.8337395
Decay Rate-2.4E-07
L11 46469U 20066A 20304.82544505 -.00000024 00000-0 51574-4 0 9998
L22 46469 65.9968 292.6825 0009819 235.0815 124.9386 13.83373950 5481

Live tracking and technical data element details for HAIYANG-2C (NORAD 46469). HAIYANG-2C can be tracked NOW for your location showing map with azimuth and elevation plus other details from your city location.

Track the satellite on the map from your city or location and see movement details for azimuth, elevation, latitude, longitude, range, height, and movement on the map or in text.







IsCatalogInMostPopularTable: catalog: 46469, numindb: 12
Update: records affected: 1



GetName: 46469 HAIYANG-2C

Hit Count: updated at: Sat, 31 Oct 2020 11:19:21 GMT